Regional Weather Roundup
Issued by NWS

Home | Current Version | Previous Version | Graphics & Text | Print | Product List | Glossary On
Versions: 1 2 3 4 5 6 7 8 9 10 11 12 13 14 15 16 17 18 19 20 21 22 23 24 25 26 27 28 29 30 31 32 33 34 35 36 37 38 39 40 41 42 43 44 45 46 47 48 49 50
000
ASUS43 KMKX 221600
RWRWI

WISCONSIN REGIONAL WEATHER ROUNDUP
NATIONAL WEATHER SERVICE MILWAUKEE/SULLIVAN WI
1000 AM CST MON DEC 22 2014

NOTE: "FAIR" INDICATES FEW OR NO CLOUDS BELOW 12,000 FEET WITH NO
SIGNIFICANT WEATHER AND/OR OBSTRUCTIONS TO VISIBILITY.

WIZ001-002-006>008-014>016-023>028-221700-
NORTHWEST WISCONSIN

CITY           SKY/WX    TMP DP  RH WIND       PRES   REMARKS
SUPERIOR ARPT  DRIZZLE   35  34  96 E3        29.73S
ASHLAND        CLOUDY    36  33  89 S5        29.77R FOG     WCI  32
HAYWARD        CLOUDY    34  32  92 SE12G21   29.74R FOG     WCI  25
SIREN          CLOUDY    35  34  97 SE14      29.70S FOG     WCI  25
CUMBERLAND     FOG       32  32 100 SE9       29.71S VSB 1   WCI  24
RICE LAKE      CLOUDY    34  33  96 SE13G20   29.74S FOG     WCI  25
CHETEK         CLOUDY    33  33  97 E12       29.74S FOG     WCI  25
LADYSMITH      CLOUDY    34  33  95 SE10      29.78R FOG     WCI  26
EAU CLAIRE     NOT AVBL
MENOMONIE      CLOUDY    35  34  94 E12       29.73S FOG     WCI  27
NEW RICHMOND   CLOUDY    35  35 100 SE10      29.69S FOG     WCI  27
OSCEOLA        CLOUDY    36  36 100 SE13      29.71S FOG     WCI  27
$$

WIZ003>005-009-010-017-018-221700-
NORTH CENTRAL WISCONSIN

CITY           SKY/WX    TMP DP  RH WIND       PRES   REMARKS
MANITOWISH WTR CLOUDY    32  32 100 S8        29.79S FOG     WCI  25
ARBOR VITAE    CLOUDY    33  32  95 SE13      29.80R FOG     WCI  24
WOODRUFF       CLOUDY    33  32  95 SE13      29.80R FOG     WCI  24
RHINELANDER    CLOUDY    31  30  96 SE7       29.82S FOG     WCI  24
EAGLE RIVER    CLOUDY    32  32 100 SE5       29.82S FOG     WCI  27
LAND O LAKES   CLOUDY    32  32 100 S7        29.82S FOG     WCI  26
PHILLIPS       CLOUDY    32  31  98 SE10      29.77S FOG     WCI  24
TOMAHAWK       CLOUDY    32  31  96 SE3       29.81S FOG
MEDFORD        CLOUDY    32  31  96 SE9G17    29.78S FOG     WCI  24
MERRILL        CLOUDY    32  32  99 SE7       29.82S FOG     WCI  26
$$

WIZ029-030-035-036-043>047-221700-
CENTRAL WISCONSIN

CITY           SKY/WX    TMP DP  RH WIND       PRES   REMARKS
WAUSAU         CLOUDY    33  31  92 SE9       29.81F FOG     WCI  25
MOSINEE        CLOUDY    32  32 100 SE10      29.83S FOG     WCI  24
MARSHFIELD     LGT SNOW  34  31  88 SE12      29.79F FOG     WCI  25
STEVENS POINT  CLOUDY    32  30  94 SE8       29.83F FOG     WCI  25
WAUPACA        CLOUDY    36  33  88 E8        29.86F FOG     WCI  29
WAUTOMA        NOT AVBL
WISC RAPIDS    CLOUDY    34  30  85 SE7       29.83F FOG     WCI  28
CAMP DOUGLAS   NOT AVBL
$$

WIZ011>013-019>022-031-037>040-048>050-221700-
NORTHEAST WISCONSIN

CITY           SKY/WX    TMP DP  RH WIND       PRES   REMARKS
ANTIGO         CLOUDY    31  31 100 SE9       29.84S FOG     WCI  22
SHAWANO        CLOUDY    36  33  90 SE10      29.89S FOG     WCI  28
OCONTO         CLOUDY    35  35 100 SE8       29.92S WCI  28
STURGEON BAY   CLOUDY    36  30  80 SE16      29.94F WCI  26
GREEN BAY      CLOUDY    37  34  89 SE12      29.90F FOG     WCI  29
MANITOWOC      NOT AVBL
APPLETON       CLOUDY    34  34 100 SE9       29.87F FOG     WCI  26
CLINTONVILLE   CLOUDY    34  32  93 SE10      29.88S FOG     WCI  26
OSHKOSH        CLOUDY    35  30  82 SE10      29.87F HAZE    WCI  27
$$

WIZ032>034-041-042-053>061-221700-
SOUTHWEST WISCONSIN

CITY           SKY/WX    TMP DP  RH WIND       PRES   REMARKS
LA CROSSE      CLOUDY    39  32  76 SE10      29.75F WCI  32
SPARTA         CLOUDY    37  32  84 E6        29.79S WCI  32
VIROQUA        CLOUDY    35  35 100 SE13G18   29.75S WCI  26
BOSCOBEL       CLOUDY    38  32  79 E5        29.78F WCI  34
PRAIRIE DU CHI CLOUDY    36  31  82 E8        29.76S HAZE    WCI  30
PLATTEVILLE    CLOUDY    34  32  91 E13       29.78F WCI  25
$$

WIZ056-057-062-063-064-067-068-221700-
SOUTH CENTRAL WISCONSIN

CITY           SKY/WX    TMP DP  RH WIND       PRES   REMARKS
REEDSBURG      CLOUDY    34  32  90 E7        29.80F FOG     WCI  28
BARABOO/DELLS  CLOUDY    34  31  88 E8        29.81F FOG     WCI  27
LONE ROCK      NOT AVBL
MINERAL POINT  CLOUDY    36  32  87 E10G16    29.77F FOG     WCI  28
MADISON        CLOUDY    35  30  82 SE10      29.83F HAZE    WCI  27
MIDDLETON      CLOUDY    35  32  88 SE9       29.83F WCI  28
WATERTOWN      CLOUDY    32  31  96 SE8       29.86F FOG     WCI  25
MONROE         CLOUDY    32  32 100 E10       29.81S FOG     WCI  24
JANESVILLE     CLOUDY    36  32  87 E10       29.84F FOG     WCI  28
$$

WIZ051-052-058>065-066-070>072-221700-
SOUTHEAST WISCONSIN

CITY           SKY/WX    TMP DP  RH WIND       PRES   REMARKS
MILWAUKEE      CLOUDY    37  31  78 SE14      29.90S HAZE    WCI  28
WAUKESHA       CLOUDY    34  30  86 SE7       29.89F FOG     WCI  28
MILWAUKEE/TIMM CLOUDY    36  30  80 SE10      29.90F HAZE    WCI  28
RACINE         CLOUDY    37  31  78 SE13G22   29.92F HAZE    WCI  29
BURLINGTON     CLOUDY    32  29  88 SE8       29.88F FOG     WCI  25
KENOSHA        CLOUDY    36  32  85 SE13      29.89F FOG     WCI  27
FOND DU LAC    CLOUDY    35  30  82 SE13      29.88S HAZE    WCI  26
SHEBOYGAN      CLOUDY    37  32  82 SE12G18   29.92S WCI  29
WEST BEND      CLOUDY    36  32  87 E7        29.89F WCI  30
JUNEAU         CLOUDY    32  30  92 E9        29.87F FOG     WCI  24
$$

LSZ147-162-221700-
LAKE SUPERIOR

STATION/POSITION TIME  TEMP    WIND        PRES    WAVE
                       AIR SEA DIR/SP/G            HT/PER
                 (UTC) (F)     (DEG/KT/KT) (MB)    (FT/S)
DEVILS ISLAND    1500   35     140/ 10/ 12 1008.7F
PORT WING        1540   36     160/  3/  4 1007.5S
SAXON HARBOR     1500   38     200/  5/  8 1008.1
$$

LMZ867-665-643>646-221700-
LAKE MICHIGAN

STATION/POSITION TIME  TEMP    WIND        PRES    WAVE
                       AIR SEA DIR/SP/G            HT/PER
                 (UTC) (F)     (DEG/KT/KT) (MB)    (FT/S)
CHAMBERS ISLAND  1500   35     120/  8/ 14 1014.2S
NORTHPORT PIER   1500   35     150/ 14/ 18 1014.6F
SISTER BAY       1513          150/ 12/ 16   N/A
ALGOMA LAKESHORE 1515          220/ 22/ 25   N/A
KEWAUNEE LAKESHO 1500   36     170/ 19/ 22 1013.2F
SHEBOYGAN LAKESH 1500   37 37  150/ 18/ 20 1014.1F
PORT WASHINGTON  1540   38     140/ 12/ 16 1013.9F
MILWAUKEE LAKESH 1500   36     140/ 14/ 17   N/A
KENOSHA   LAKESH 1500   36     140/ 14/ 17 1012.9F
$$

TC  - TEMPERATURE IN CELSIUS
VSB - VISIBILITY IN STATUTE MILES
WCI - WIND CHILL INDEX
HX  - HEAT INDEX



USA.gov is the U.S. government's official web portal to all federal, state and local government web resources and services.